CUBESAT XI-IV (CO-57)

Last updated on Mon Sep 15 2025 00:03:09 GMT+0000 (Coordinated Universal Time)

1 27848U 03031J 25257.28537543 .00000202 00000+0 10823-3 0 9994 2 27848 98.6820 264.2575 0008376 286.9246 73.1014 14.23391244152126
UTC large
Height (km)
Speed (km/s)
/
Latitude / Longitude
Inclination (degrees)
Orbital Period (minutes)
Azimuth
Elevation
Range (km)
Doppler Factor

Next 0 passes for location: London (51.5072 / 0.1276)

Sorry there are no passes over London.